Hourly Data Report for October 09, 2019

PINAWA
MANITOBA
Current Station Operator: ECCC - MSC

50°10'38.020" N
96°03'53.000" W
268.00 m
503B1ER
71448
WEA

Download Data

Hourly Data (October 2019)
Hourly Data Report for October 9, 2019
TIME
LST
Temp Definition
°C
Dew Point Definition
°C
Rel Hum Definition
%
Precip. Amount Definition
mm

Wind Dir Definition
10's deg

Wind Spd Definition
km/h
Visibility Definition
km
Stn Press Definition
kPa
Hmdx Definition


Wind Chill Definition


Weather Definition


00:00 9.5 LegendMM LegendMM LegendMM 11 3   97.35     LegendNANA
01:00 9.9 LegendMM LegendMM LegendMM 34 8   97.41     LegendNANA
02:00 8.7 LegendMM LegendMM LegendMM 35 10   97.44     LegendNANA
03:00 8.2 LegendMM LegendMM LegendMM 36 8   97.45     LegendNANA
04:00 8.3 LegendMM LegendMM LegendMM 1 13   97.48     LegendNANA
05:00 8.2 LegendMM LegendMM LegendMM 36 12   97.57     LegendNANA
06:00 7.8 LegendMM LegendMM LegendMM 1 11   97.62     LegendNANA
07:00 7.8 LegendMM LegendMM LegendMM 36 12   97.65     LegendNANA
08:00 7.4 LegendMM LegendMM LegendMM 35 14   97.63     LegendNANA
09:00 7.6 LegendMM LegendMM LegendMM 35 12   97.75     LegendNANA
10:00 6.6 LegendMM LegendMM LegendMM 35 16   97.74     LegendNANA
11:00 6.0 LegendMM LegendMM LegendMM 35 14   97.73     LegendNANA
12:00 6.2 LegendMM LegendMM LegendMM 2 14   97.78     LegendNANA
13:00 6.0 LegendMM LegendMM LegendMM 2 12   97.80     LegendNANA
14:00 5.9 LegendMM LegendMM LegendMM 1 15   97.86     LegendNANA
15:00 4.3 LegendMM LegendMM LegendMM 35 17   97.93     LegendNANA
16:00 4.0 LegendMM LegendMM LegendMM 35 14   97.99     LegendNANA
17:00 3.6 LegendMM LegendMM LegendMM 36 16   98.07     LegendNANA
18:00 3.5 LegendMM LegendMM LegendMM 1 17   98.15     LegendNANA
19:00 2.9 LegendMM LegendMM LegendMM 34 16   98.31     LegendNANA
20:00 2.9 LegendMM LegendMM LegendMM 36 15   98.36     LegendNANA
21:00 2.6 LegendMM LegendMM LegendMM 1 12   98.39     LegendNANA
22:00 2.5 LegendMM LegendMM LegendMM 1 15   98.46     LegendNANA
23:00 2.5 LegendMM LegendMM LegendMM 35 15   98.56     LegendNANA

Notes on Data Quality.

Legend

  • E = Estimated
  • M = Missing
  • NA = Not Available*
  • [empty] = Indicates an unobserved value
Date modified: